Location: Maiden
(35.5760°N, 81.2120°W)
Time: 21:14:45
(UTC-04:00)

OTV 5 (USA 277) - Visible Passes

Search period start: 20 May 2018 00:00
Search period end: 30 May 2018 00:00
Orbit: 308 x 326 km, 54.5° (Epoch: 06 May)

Date Brightness Start Highest point End Pass type
(mag) Time Alt. Az. Time Alt. Az. Time Alt. Az.
25 May ? 05:31:33 10° SSE 05:32:41 12° SE 05:33:49 10° E visible
28 May ? 04:40:45 18° SSE 04:41:32 20° SE 04:43:39 10° ENE visible
29 May ? 04:54:46 33° SSW 04:55:48 74° SE 04:58:33 10° NE visible
